This demonstration page uses our WeatherBlox Daily Observations layout. Learn more.

Left ArrowRight Arrow

47.50024, -111.30081

Hourly Observations for April 12, 2020

Temp ( °F °C ) Dew Point ( °F °C ) Humidity (%) Winds ( mph kmh ) Pressure ( in mb ) Visibility ( mi km ) Precip ( " mm )
12:28 am 00:28 Cloudy with Light Snow 18 -7.8 14 -10 84 84 NNW 8 13 30.47 1032 3 4 0.01 0.25
12:38 am 00:38 Cloudy with Light Snow 18 -7.8 14 -10 84 84 NNW 8 13 30.47 1032 3 4 0.01 0.25
12:53 am 00:53 Cloudy with Light Snow 18 -7.8 14 -10 84 84 NNW 8 13 30.43 1030 3 4 0.01 0.25
1:03 am 01:03 Cloudy with Light Snow 18 -7.8 14 -10 84 84 NNW 7 11 30.48 1032 3 4 0.00 0.00
1:13 am 01:13 Cloudy with Haze 18 -7.8 13 -10.6 81 81 NW 9 15 30.48 1032 6 10 0.00 0.00
1:53 am 01:53 Cloudy 16 -8.9 11 -11.7 80 80 NW 7 11 30.44 1031 9 14 0.00 0.00
2:53 am 02:53 Clear 9 -12.8 5 -15 84 84 NW 8 13 30.46 1031 10 16 0.00 0.00
3:53 am 03:53 Clear 6 -14.4 2 -16.7 83 83 NW 7 11 30.47 1032 10 16 0.00 0.00
4:53 am 04:53 Clear 2 -16.7 -2 -18.9 83 83 WNW 8 13 30.48 1032 10 16 0.00 0.00
5:53 am 05:53 Clear 1 -17.2 -3 -19.4 83 83 WSW 6 9 30.48 1032 10 16 0.00 0.00
6:53 am 06:53 Sunny 1 -17.2 -3 -19.4 83 83 SW 12 19 30.48 1032 10 16 0.00 0.00
7:53 am 07:53 Sunny 3 -16.1 0 -17.8 87 87 SW 8 13 30.49 1032 10 16 0.00 0.00
8:53 am 08:53 Sunny 8 -13.3 4 -15.6 83 83 SW 10 17 30.48 1032 10 16 0.00 0.00
9:53 am 09:53 Sunny 11 -11.7 7 -13.9 84 84 SW 10 17 30.47 1032 10 16 0.00 0.00
10:53 am 10:53 Sunny 14 -10 8 -13.3 77 77 SW 8 13 30.47 1032 10 16 0.00 0.00
11:53 am 11:53 Sunny 16 -8.9 9 -12.8 74 74 SW 10 17 30.47 1032 10 16 0.00 0.00
12:53 pm 12:53 Sunny 19 -7.2 11 -11.7 71 71 SSW 10 17 30.45 1031 10 16 0.00 0.00
1:53 pm 13:53 Sunny 22 -5.6 10 -12.2 60 60 W 13 20 30.45 1031 10 16 0.00 0.00
2:53 pm 14:53 Cloudy 23 -5 12 -11.1 63 63 NNW 14 22 30.47 1032 10 16 0.00 0.00
3:31 pm 15:31 Mostly Cloudy 25 -3.9 14 -10 63 63 NNW 13 20 30.42 1030 10 16 0.00 0.00
3:53 pm 15:53 Mostly Cloudy 25 -3.9 13 -10.6 60 60 NNW 14 22 30.46 1032 10 16 0.00 0.00
4:53 pm 16:53 Partly Cloudy 25 -3.9 10 -12.2 53 53 N 9 15 30.48 1032 10 16 0.00 0.00
5:53 pm 17:53 Partly Cloudy 24 -4.4 9 -12.8 52 52 NNW 8 13 30.48 1032 10 16 0.00 0.00
6:53 pm 18:53 Partly Cloudy 23 -5 9 -12.8 55 55 NW 5 7 30.48 1032 10 16 0.00 0.00
7:53 pm 19:53 Cloudy 21 -6.1 9 -12.8 59 59 WSW 3 6 30.48 1032 10 16 0.00 0.00
8:53 pm 20:53 Cloudy 19 -7.2 11 -11.7 71 71 WSW 8 13 30.48 1032 10 16 0.00 0.00
9:53 pm 21:53 Cloudy 21 -6.1 9 -12.8 59 59 WNW 7 11 30.48 1032 9 14 0.00 0.00
10:53 pm 22:53 Cloudy 19 -7.2 12 -11.1 74 74 WSW 10 17 30.45 1031 10 16 0.00 0.00
11:53 pm 23:53 Partly Cloudy 18 -7.8 10 -12.2 71 71 WSW 10 17 30.45 1031 10 16 0.00 0.00

Powered by AerisWeather